Home   Weather   Santa Barbara   Past weeks

Flag for USA Past Weather in Santa Barbara, California, USA — Yesterday and Last 2 Weeks

Now
61 °F

Clear.


Feels Like: 61 °F
Forecast: 52 / 65 °F
Wind: No wind

Location: Santa Barbara Municipal Airport

Current Time: Dec 10, 2016 at 6:32:20 pm

Latest Report: Dec 10, 2016 at 5:53 pm


Visibility: 10 mi

Pressure: 30.07 "Hg

Humidity: 90%

Dew Point: 58 °F

Location of Santa BarbaraLocation

Past Weather in Santa Barbara — Graph

°F

Santa Barbara Temperature Yesterday

Maximum temperature yesterday: 66 °F (at 1:53 pm)
Minimum temperature yesterday: 57 °F (at 6:53 am)
Average temperature yesterday: 60 °F

High & Low Weather Summary for the Past Weeks

 TemperatureHumidityPressure
High68 °F (Nov 28, 11:53 am)100% (Nov 26, 6:53 pm)30.27 "Hg (Nov 26, 6:53 pm)
Low37 °F (Dec 3, 5:53 am)34% (Dec 3, 12:53 pm)29.80 "Hg (Nov 28, 3:53 pm)
Average53 °F76%30.04 "Hg
* Reported Nov 25 4:53 pm — Dec 10 4:53 pm, Santa Barbara, Weather by CustomWeather, © 2016

Note: Actual official high and low records may vary slightly from our data, if they occured in-between our weather recording intervals... More about our weather records

Advertising

Santa Barbara Weather History for the Previous 24 Hours

Scroll right to see more
 ConditionsComfort  
Time TempWeatherWind HumidityBarometerVisibility
4:53 pm
Sat, Dec 10
62 °FPartly cloudy.No wind86%30.06 "Hg10 mi
3:53 pm64 °FMore clouds than sun.6 mph84%30.06 "Hg10 mi
2:53 pm65 °FScattered clouds.13 mph81%30.07 "Hg10 mi
1:53 pm67 °FPassing clouds.3 mph79%30.07 "Hg10 mi
12:53 pm64 °FScattered clouds.7 mph84%30.11 "Hg10 mi
11:53 am62 °FScattered clouds.12 mph90%30.12 "Hg9 mi
10:53 am62 °FScattered clouds.9 mph90%30.15 "Hg10 mi
9:53 am61 °FFog.8 mph93%30.17 "Hg6 mi
8:53 am58 °FFog.5 mph100%30.16 "Hg3 mi
8:00 am56 °FFog.No wind100%30.15 "Hg1 mi
6:53 am54 °FFog.3 mph100%30.15 "Hg1 mi
5:53 am52 °FFog.3 mph100%30.14 "Hg0 mi
5:01 am50 °FFog.No wind100%30.14 "Hg1 mi
3:53 am52 °FFog.No wind100%30.14 "Hg1 mi
2:53 am53 °FFog.5 mph100%30.15 "Hg1 mi
1:53 am55 °FFog.5 mph100%30.16 "Hg5 mi
12:53 am58 °FClear.7 mph97%30.14 "Hg7 mi
11:53 pm
Fri, Dec 9
58 °FFog.8 mph100%30.16 "Hg6 mi
10:53 pm59 °FClear.7 mph93%30.17 "Hg10 mi
9:53 pm59 °FClear.No wind93%30.16 "Hg10 mi
8:53 pm59 °FClear.No wind90%30.16 "Hg10 mi
7:53 pm62 °FClear.3 mph86%30.14 "Hg10 mi
6:53 pm61 °FClear.6 mph90%30.14 "Hg10 mi
Weather by CustomWeather, © 2016

See weather overviewHow to use our weather pages